Regional Weather Roundup
Issued by NWS Portland, ME

Home | Current Version | Previous Version | Text Only | Print | Product List | Glossary On
Versions: 1 2 3 4 5 6 7 8 9 10 11 12 13 14 15 16 17 18 19 20 21 22 23 24 25 26 27 28 29 30 31 32 33 34 35 36 37 38 39 40 41 42 43 44 45 46 47 48 49 50
000
ASUS41 KGYX 202310
RWRGYX
WEATHER ROUNDUP FOR MAINE AND NEW HAMPSHIRE
NATIONAL WEATHER SERVICE GRAY ME
600 PM EST SAT JAN 20 2018

MEZ002-005-006-010-012-015-018-020-021-024-026-027-029-210000-
MAINE

CITY           SKY/WX    TMP DP  RH WIND       PRES   REMARKS
PORTLAND       FAIR      40  28  62 VRB7      29.76R
SANFORD        FAIR      38  27  64 NW3       29.78R
BAR HARBOR     FAIR      35  29  78 S5        29.68R
WISCASSET      FAIR      30  28  92 CALM      29.75R
ROCKLAND       FAIR      34  26  72 SW7       29.72R
FRYEBURG       FAIR      43  27  53 NW15G30   29.75R
LEWISTONAUBURN FAIR      42  26  53 W14G21    29.74R
AUGUSTA        MOCLDY    41  26  55 W14G22    29.72R
WATERVILLE     CLOUDY    41  27  57 W8G20     29.66R
BANGOR         FAIR      40  27  59 W10G20    29.65R
GREENVILLE       N/A     36  25  64 W17G33    29.53R
MILLINOCKET    MOCLDY    39  27  62 W14G25    29.55R
HOULTON        CLOUDY    39  27  62 W17G28    29.49R
PRESQUE ISLE   CLOUDY    38  26  62 W16G30    29.46R
FRENCHVILLE    FLURRIES  34  25  69 NW21G39   29.42R
CARIBOU        CLOUDY    38  26  62 W13G22    29.44R
$$

NHZ002-005-008-009-011-012-014-210000-
NEW HAMPSHIRE

CITY           SKY/WX    TMP DP  RH WIND       PRES   REMARKS
PORTSMOUTH     MOCLDY    42  26  52 W3        29.78R
ROCHESTER      FAIR      43  28  55 W6        29.77R
NASHUA         FAIR      44  27  51 W8        29.81R
MANCHESTER     MOCLDY    44  26  49 W7        29.78R
CONCORD        FAIR      41  27  57 CALM      29.79R
LACONIA        FAIR      41  28  60 VRB5      29.79R
PLYMOUTH       FAIR      42  28  58 W10G23    29.79R
BERLIN         CLOUDY    39  27  62 W8        29.74R
WHITEFIELD     CLOUDY    39  27  62 SW8       29.78R
JAFFREY        FAIR      39  28  64 CALM      29.80R
KEENE          FAIR      37  27  67 S6        29.84R
LEBANON        FAIR      35  28  75 CALM      29.81R
MT WASHINGTON  FOG       16  16 100 W77G92      N/A  VSB 1/16WCI -13
$$

VTZ005-007-008-210000-
VERMONT

CITY           SKY/WX    TMP DP  RH WIND       PRES   REMARKS
ST JOHNSBURY     N/A     38  29  70 MISG      29.78R
MONTPELIER     FAIR      38  27  64 W16G30    29.84R
BURLINGTON     MOCLDY    42  27  55 W9        29.83R
$$

MAZ007-012-024-CTZ003-RIZ002-NYZ038-NYZ072-210000-
SOUTHERN NEW ENGLAND AND NY

CITY           SKY/WX    TMP DP  RH WIND       PRES   REMARKS
BOSTON         FAIR      44  27  51 SW12      29.82R
WORCESTER      FAIR      40  24  53 W16       29.81R
NANTUCKET      FAIR      40  33  76 W17       29.86R
PROVIDENCE     MOCLDY    43  27  53 SW9       29.87R
HARTFORD       MOCLDY    41  27  57 SW7       29.88R
ALBANY         MOCLDY    41  27  57 NW8       29.93R
NEW YORK CITY  MOCLDY    49  26  41 W13G23    29.94R
$$

ANZ081-ANZ082-ANZ150-NHZ014-MEZ023>029-210000-
COASTAL MARINE OBSERVATIONS

STATION/POSITION TIME  TEMP    WIND        PRES    WAVE
                       AIR SEA DIR/SP/G            HT/PER
                 (UTC) (F)     (DEG/KT/KT) (MB)    (FT/S)
MOUNT DESERT ROC 2300   41     240/ 17/ 19 1005.9R
MATINICUS ROCK   2300   42     270/ 18/ 19 1005.8R
ISLE OF SHOALS   2300   44     250/ 15/ 16 1008.5R
JEFFREYS LEDGE   2236      43                N/A     4/11
GEORGES BANK BUO 2150   54 59              1003.2   12/10
$$

.............KEY..............
   WCI - WIND CHILL
   TC  - TEMPERATURE IN CELSIUS
   VSB - VISIBILITY IN MILES
   HX  - HEAT INDEX
   FAIR- INDICATES FEW OR NO CLOUDS BELOW 12,000 FT, WITH NO
         SIGNIFICANT WEATHER AND/OR OBSTRUCTIONS TO VISIBILITY.






USA.gov is the U.S. government's official web portal to all federal, state and local government web resources and services.